ASTEX 1 (5560 NORAD) Tracking and Keplerian Element Data

This shows tracking and keplerian element data for the satellite.

Feedback or suggestion? Click here.




ElementValue
Catalog5560
NameASTEX 1
Epoch Orbit80450
Epoch Day34.93534042
Epoch Year2025
RAAN22.6991
Inclination92.7105
Eccentricity0.0015659
Argument of Perigee0.1305
Mean Anonmoly359.9902
Mean Motion14.50104434
Decay Rate1.283E-05
L11 05560U 71089A 25034.93534042 .00001283 00000+0 33063-3 0 9996
L22 05560 92.7105 22.6991 0015659 0.1305 359.9902 14.50104434804506



Live tracking and technical data element details for ASTEX 1 (NORAD 5560). ASTEX 1 can be tracked NOW for your location showing map with azimuth and elevation plus other details from your city location.







IsCatalogInMostPopularTable: catalog: 5560, numindb: 317
Update: records affected: 1



GetName: 5560 ASTEX 1

Hit Count: updated at: Fri, 16 May 2025 10:12:38 GMT